Notices

What's New in latest Release from April 7th, 2021:

- Updated Glossary, including Speed of Maximum Gust, and Total Hourly Precipitation

- Updated national and regional climate services offices contacts and prices information

- Addition of station inventory lists for 1981-2010, 1971-2000, and 1961-1990 Normals.

If you haven't already, please take our survey and provide feedback about our website: https://eccc.sondage-survey.ca/f/LanguageSelection.aspx?s=442ca660-fcf1-47c0-95a9-59707d6fd709

Hourly Data Report for February 28, 2006

TORONTO CITY
ONTARIO

43°40'00.000" N
79°24'00.000" W
112.50 m
6158355
71508
XTO

Download Data

Hourly Data (February 2006)
Hourly Data Report for February 28, 2006
TIME
LST
Temp Definition
°C
Dew Point Definition
°C
Rel Hum Definition
%
Precip. Amount Definition
mm

Wind Dir Definition
10's deg

Wind Spd Definition
km/h
Visibility Definition
km
Stn Press Definition
kPa
Hmdx Definition


Wind Chill Definition


Weather Definition


00:00 -8.8 -11.8 79   LegendMM LegendMM   100.11     LegendNANA
01:00 -9.3 -12.2 79   LegendMM LegendMM   100.10     LegendNANA
02:00 -9.9 -13.4 76   LegendMM LegendMM   100.08     LegendNANA
03:00 -10.1 -13.9 74   LegendMM LegendMM   100.03     LegendNANA
04:00 -9.4 -13.6 71   LegendMM LegendMM   100.02     LegendNANA
05:00 -9.5 -13.6 72   LegendMM LegendMM   100.04     LegendNANA
06:00 -10.4 -13.5 78   LegendMM LegendMM   100.05     LegendNANA
07:00 -10.5 -13.1 81   LegendMM LegendMM   100.06     LegendNANA
08:00 -8.8 -12.6 74   LegendMM LegendMM   100.03     LegendNANA
09:00 -8.4 -15.3 57   LegendMM LegendMM   100.08     LegendNANA
10:00 -6.7 -14.4 54   LegendMM LegendMM   100.04     LegendNANA
11:00 -4.6 -13.8 49   LegendMM LegendMM   100.01     LegendNANA
12:00 -4.3 -13.1 50   LegendMM LegendMM   99.97     LegendNANA
13:00 -4.8 -13.3 51   LegendMM LegendMM   99.90     LegendNANA
14:00 -4.3 -13.3 49   LegendMM LegendMM   99.79     LegendNANA
15:00 -4.5 -12.0 56   LegendMM LegendMM   99.70     LegendNANA
16:00 -4.2 -12.0 55   LegendMM LegendMM   99.67     LegendNANA
17:00 -4.3 -10.1 64   LegendMM LegendMM   99.67     LegendNANA
18:00 -4.6 -11.9 57   LegendMM LegendMM   99.67     LegendNANA
19:00 -5.0 -11.7 59   LegendMM LegendMM   99.69     LegendNANA
20:00 -4.9 -11.4 60   LegendMM LegendMM   99.67     LegendNANA
21:00 -5.0 -10.7 64   LegendMM LegendMM   99.65     LegendNANA
22:00 -5.2 -10.6 66   LegendMM LegendMM   99.66     LegendNANA
23:00 -5.0 -10.3 66   LegendMM LegendMM   99.69     LegendNANA

Notes on Data Quality.

Legend

  • E = Estimated
  • M = Missing
  • NA = Not Available*
  • [empty] = Indicates an unobserved value
Date modified: